QPF
0.10 0.08 0.06 0.04 0.05 0.05 0.05 0.04 0.03 0.02 0.02 0.02 0.01 0.01 0.01 0.01 0.01 0.01 0.02 0.02 0.02 0.04 0.06 0.10 0.13 0.13 0.15 0.14 0.12 0.11 0.11 0.11 0.09 0.07 0.06 0.06 0.05 0.05 0.04 0.04 0.05 0.05 0.05
0.13 0.11 0.10 0.10 0.09 0.08 0.07 0.05 0.04 0.04 0.04 0.03 0.03 0.02 0.01 0.01 0.01 0.02 0.04 0.04 0.02 0.03 0.05 0.10 0.13 0.15 0.17 0.16 0.15 0.12 0.11 0.10 0.11 0.09 0.08 0.06 0.05 0.05 0.05 0.04 0.04 0.05 0.05
0.20 0.18 0.17 0.16 0.13 0.09 0.08 0.08 0.07 0.06 0.05 0.04 0.04 0.02 0.02 0.02 0.02 0.01 0.02 0.04 0.04 0.03 0.04 0.06 0.09 0.12 0.14 0.16 0.15 0.13 0.11 0.10 0.09 0.09 0.08 0.06 0.04 0.04 0.04 0.04 0.04 0.05 0.05
0.25 0.26 0.23 0.18 0.14 0.12 0.10 0.10 0.11 0.11 0.09 0.07 0.05 0.02 0.02 0.02 0.01 0.01 0.01 0.02 0.04 0.05 0.05 0.04 0.06 0.08 0.10 0.12 0.12 0.11 0.12 0.11 0.09 0.08 0.07 0.07 0.07 0.05 0.05 0.04 0.04 0.04 0.04
0.27 0.28 0.26 0.19 0.17 0.16 0.14 0.13 0.13 0.11 0.09 0.07 0.05 0.04 0.03 0.02 0.02 0.02 0.02 0.02 0.03 0.04 0.06 0.05 0.04 0.04 0.05 0.06 0.07 0.09 0.11 0.10 0.09 0.09 0.09 0.08 0.07 0.07 0.07 0.06 0.06 0.05 0.05
0.33 0.28 0.26 0.24 0.21 0.19 0.16 0.14 0.12 0.09 0.07 0.07 0.05 0.04 0.03 0.03 0.02 0.02 0.02 0.02 0.02 0.02 0.02 0.04 0.06 0.05 0.04 0.04 0.05 0.06 0.07 0.10 0.11 0.11 0.11 0.11 0.10 0.09 0.08 0.07 0.06 0.06 0.05
0.29 0.29 0.26 0.22 0.20 0.18 0.17 0.15 0.12 0.09 0.08 0.07 0.07 0.05 0.02 0.02 0.02 0.02 0.02 0.02 0.01 0.01 0.01 0.01 0.02 0.03 0.03 0.02 0.03 0.05 0.10 0.14 0.16 0.14 0.12 0.11 0.11 0.09 0.09 0.07 0.07 0.05 0.04
0.24 0.24 0.21 0.19 0.16 0.16 0.15 0.13 0.10 0.08 0.06 0.06 0.08 0.08 0.05 0.03 0.02 0.01 0.01 0.02 0.01 0.01 0.00 0.01 0.01 0.01 0.02 0.03 0.03 0.04 0.05 0.08 0.09 0.09 0.08 0.09 0.09 0.09 0.09 0.09 0.08 0.07 0.06
0.21 0.21 0.20 0.18 0.15 0.13 0.12 0.12 0.11 0.10 0.07 0.06 0.06 0.08 0.08 0.07 0.03 0.01 0.01 0.01 0.01 0.00 0.01 0.01 0.01 0.01 0.01 0.02 0.03 0.03 0.04 0.07 0.07 0.07 0.06 0.05 0.05 0.06 0.07 0.07 0.08 0.08 0.09
0.21 0.19 0.18 0.17 0.14 0.11 0.10 0.10 0.10 0.10 0.08 0.06 0.05 0.04 0.05 0.06 0.04 0.02 0.01 0.01 0.01 0.01 0.01 0.01 0.01 0.01 0.02 0.02 0.02 0.02 0.02 0.03 0.03 0.03 0.04 0.04 0.03 0.03 0.03 0.04 0.05 0.06 0.07
0.19 0.18 0.17 0.17 0.14 0.11 0.09 0.08 0.08 0.07 0.06 0.06 0.05 0.04 0.04 0.04 0.04 0.04 0.03 0.01 0.01 0.01 0.01 0.01 0.01 0.02 0.02 0.04 0.03 0.03 0.02 0.01 0.01 0.01 0.01 0.02 0.02 0.01 0.01 0.01 0.02 0.02 0.03
0.14 0.12 0.10 0.09 0.08 0.08 0.09 0.08 0.07 0.06 0.06 0.06 0.06 0.05 0.04 0.04 0.04 0.03 0.03 0.02 0.02 0.01 0.01 0.01 0.01 0.01 0.01 0.02 0.02 0.02 0.01 0.01 0.00 0.00 0.00 0.00 0.00 0.00 0.00 0.01 0.01 0.01 0.02
0.10 0.07 0.06 0.06 0.04 0.04 0.04 0.04 0.04 0.04 0.04 0.04 0.03 0.03 0.03 0.03 0.03 0.03 0.03 0.03 0.02 0.02 0.01 0.01 0.01 0.01 0.01 0.01 0.01 0.01 0.00 0.00 0.00 0.00 0.00 0.00 0.00 0.00 0.00 0.00 0.00 0.00 0.01
0.08 0.05 0.03 0.03 0.02 0.02 0.02 0.02 0.02 0.02 0.01 0.01 0.01 0.01 0.01 0.01 0.01 0.01 0.01 0.02 0.02 0.01 0.01 0.01 0.01 0.01 0.02 0.02 0.02 0.02 0.00 0.00 0.00 0.00 0.00 0.00 0.00 0.00 0.00 0.00 0.00 0.00 0.00
0.08 0.05 0.03 0.02 0.02 0.02 0.01 0.01 0.00 0.00 0.00 0.00 0.00 0.00 0.00 0.00 0.00 0.00 0.00 0.00 0.01 0.01 0.01 0.00 0.00 0.01 0.02 0.02 0.04 0.03 0.01 0.01 0.00 0.00 0.00 0.00 0.00 0.00 0.00 0.00 0.00 0.00 0.00
0.07 0.06 0.04 0.02 0.02 0.02 0.01 0.01 0.01 0.00 0.00 0.00 0.00 0.00 0.00 0.00 0.00 0.00 0.00 0.00 0.00 0.00 0.00 0.00 0.00 0.01 0.01 0.01 0.02 0.02 0.01 0.01 0.00 0.00 0.00 0.00 0.00 0.00 0.00 0.00 0.00 0.00 0.00
0.08 0.06 0.05 0.03 0.01 0.01 0.01 0.01 0.01 0.01 0.00 0.00 0.00 0.00 0.00 0.00 0.00 0.00 0.00 0.00 0.00 0.00 0.00 0.00 0.00 0.00 0.00 0.01 0.01 0.01 0.01 0.01 0.00 0.00 0.00 0.00 0.00 0.00 0.00 0.00 0.00 0.00 0.00
0.07 0.05 0.04 0.02 0.01 0.01 0.00 0.01 0.01 0.01 0.01 0.01 0.00 0.00 0.00 0.00 0.00 0.00 0.00 0.00 0.00 0.00 0.00 0.00 0.00 0.00 0.00 0.00 0.00 0.00 0.01 0.01 0.00 0.00 0.00 0.00 0.00 0.00 0.00 0.00 0.00 0.00 0.00
0.03 0.02 0.01 0.01 0.01 0.01 0.01 0.01 0.01 0.01 0.01 0.01 0.01 0.01 0.00 0.00 0.00 0.00 0.00 0.00 0.00 0.00 0.00 0.00 0.00 0.00 0.00 0.00 0.00 0.00 0.00 0.00 0.00 0.00 0.00 0.00 0.00 0.00 0.00 0.00 0.00 0.00 0.00
0.01 0.01 0.01 0.00 0.00 0.00 0.00 0.00 0.00 0.00 0.00 0.00 0.00 0.00 0.00 0.00 0.00 0.00 0.00 0.00 0.00 0.00 0.00 0.00 0.00 0.00 0.00 0.00 0.00 0.00 0.00 0.00 0.00 0.00 0.00 0.00 0.00 0.00 0.00 0.00 0.00 0.00 0.00
0.01 0.01 0.00 0.00 0.00 0.00 0.00 0.00 0.00 0.00 0.00 0.00 0.00 0.00 0.00 0.00 0.00 0.00 0.00 0.00 0.01 0.01 0.01 0.01 0.01 0.01 0.01 0.01 0.01 0.00 0.00 0.01 0.01 0.00 0.00 0.01 0.00 0.01 0.01 0.01 0.00 0.00 0.00
0.00 0.00 0.00 0.00 0.00 0.00 0.00 0.00 0.00 0.00 0.00 0.01 0.01 0.01 0.01 0.01 0.00 0.00 0.00 0.00 0.00 0.00 0.01 0.01 0.02 0.02 0.02 0.02 0.01 0.01 0.01 0.01 0.01 0.01 0.01 0.01 0.01 0.01 0.02 0.01 0.00 0.00 0.00
0.00 0.00 0.00 0.00 0.00 0.00 0.00 0.00 0.00 0.00 0.01 0.01 0.01 0.01 0.00 0.00 0.00 0.00 0.00 0.00 0.00 0.00 0.00 0.00 0.02 0.02 0.02 0.02 0.01 0.01 0.02 0.01 0.02 0.02 0.01 0.01 0.02 0.02 0.01 0.00 0.00 0.00 0.00
0.01 0.01 0.01 0.00 0.00 0.00 0.00 0.00 0.00 0.01 0.01 0.01 0.01 0.01 0.01 0.02 0.00 0.00 0.00 0.01 0.01 0.01 0.00 0.00 0.01 0.02 0.01 0.01 0.01 0.01 0.01 0.01 0.02 0.03 0.01 0.01 0.02 0.03 0.02 0.02 0.00 0.00 0.00
0.01 0.01 0.01 0.01 0.01 0.00 0.00 0.00 0.00 0.01 0.01 0.01 0.00 0.00 0.00 0.01 0.00 0.00 0.00 0.02 0.02 0.02 0.00 0.00 0.00 0.00 0.00 0.00 0.00 0.00 0.02 0.03 0.03 0.03 0.01 0.02 0.03 0.02 0.02 0.03 0.02 0.00 0.00
0.01 0.01 0.01 0.01 0.01 0.01 0.00 0.00 0.00 0.00 0.01 0.01 0.01 0.01 0.00 0.00 0.00 0.00 0.01 0.02 0.03 0.02 0.01 0.01 0.01 0.01 0.02 0.01 0.00 0.01 0.03 0.03 0.03 0.04 0.02 0.02 0.03 0.02 0.02 0.03 0.04 0.03 0.03
MSLP
1015.95 1016.07 1016.19 1016.35 1016.53 1016.75 1016.97 1017.17 1017.34 1017.45 1017.49 1017.47 1017.42 1017.37 1017.35 1017.40 1017.52 1017.73 1017.99 1018.30 1018.59 1018.86 1019.06 1019.19 1019.25 1019.27 1019.25 1019.22 1019.21 1019.21 1019.24 1019.28 1019.34 1019.41 1019.49 1019.59 1019.71 1019.85 1020.02 1020.21 1020.40 1020.59 1020.74
1015.85 1015.95 1016.07 1016.23 1016.42 1016.65 1016.89 1017.13 1017.34 1017.50 1017.60 1017.65 1017.67 1017.68 1017.71 1017.78 1017.90 1018.08 1018.30 1018.53 1018.76 1018.95 1019.09 1019.18 1019.23 1019.24 1019.24 1019.24 1019.26 1019.30 1019.36 1019.43 1019.52 1019.61 1019.71 1019.82 1019.95 1020.10 1020.27 1020.45 1020.62 1020.78 1020.91
1015.80 1015.91 1016.05 1016.22 1016.44 1016.70 1016.97 1017.24 1017.50 1017.71 1017.87 1017.99 1018.08 1018.16 1018.24 1018.34 1018.47 1018.63 1018.80 1018.98 1019.13 1019.25 1019.33 1019.37 1019.38 1019.38 1019.39 1019.42 1019.47 1019.55 1019.65 1019.76 1019.88 1020.00 1020.12 1020.25 1020.38 1020.53 1020.68 1020.84 1020.99 1021.11 1021.19
1015.80 1015.94 1016.11 1016.31 1016.56 1016.85 1017.15 1017.46 1017.74 1018.00 1018.22 1018.40 1018.56 1018.71 1018.85 1019.00 1019.16 1019.32 1019.48 1019.61 1019.71 1019.77 1019.79 1019.78 1019.76 1019.74 1019.74 1019.77 1019.85 1019.95 1020.08 1020.23 1020.37 1020.52 1020.65 1020.78 1020.91 1021.04 1021.18 1021.30 1021.41 1021.49 1021.53
1015.85 1016.02 1016.23 1016.47 1016.75 1017.06 1017.38 1017.69 1018.00 1018.28 1018.54 1018.78 1019.00 1019.22 1019.44 1019.67 1019.89 1020.10 1020.27 1020.40 1020.48 1020.50 1020.47 1020.42 1020.35 1020.30 1020.28 1020.30 1020.37 1020.49 1020.63 1020.79 1020.95 1021.10 1021.23 1021.35 1021.46 1021.56 1021.65 1021.74 1021.80 1021.83 1021.83
1015.93 1016.15 1016.39 1016.67 1016.97 1017.28 1017.60 1017.91 1018.21 1018.49 1018.77 1019.05 1019.33 1019.63 1019.95 1020.27 1020.58 1020.86 1021.09 1021.26 1021.35 1021.36 1021.31 1021.22 1021.11 1021.02 1020.96 1020.96 1021.01 1021.11 1021.24 1021.39 1021.55 1021.68 1021.79 1021.88 1021.95 1022.00 1022.04 1022.06 1022.07 1022.06 1022.02
1016.07 1016.33 1016.61 1016.90 1017.21 1017.52 1017.82 1018.10 1018.37 1018.63 1018.91 1019.21 1019.54 1019.91 1020.31 1020.74 1021.15 1021.54 1021.86 1022.09 1022.22 1022.25 1022.20 1022.09 1021.95 1021.82 1021.72 1021.68 1021.70 1021.77 1021.87 1022.00 1022.12 1022.22 1022.28 1022.32 1022.33 1022.31 1022.28 1022.23 1022.19 1022.13 1022.05
1016.31 1016.59 1016.90 1017.20 1017.51 1017.79 1018.06 1018.29 1018.52 1018.75 1019.00 1019.30 1019.66 1020.08 1020.56 1021.07 1021.59 1022.07 1022.49 1022.79 1022.98 1023.05 1023.02 1022.90 1022.75 1022.59 1022.46 1022.39 1022.36 1022.40 1022.47 1022.55 1022.63 1022.68 1022.69 1022.66 1022.59 1022.49 1022.38 1022.27 1022.15 1022.05 1021.94
1016.67 1016.98 1017.30 1017.60 1017.89 1018.15 1018.37 1018.55 1018.72 1018.90 1019.12 1019.39 1019.75 1020.20 1020.72 1021.30 1021.89 1022.45 1022.93 1023.31 1023.55 1023.66 1023.65 1023.55 1023.39 1023.23 1023.08 1022.98 1022.93 1022.94 1022.98 1023.03 1023.06 1023.05 1023.00 1022.91 1022.76 1022.59 1022.40 1022.21 1022.03 1021.87 1021.72
1017.19 1017.51 1017.83 1018.13 1018.39 1018.62 1018.80 1018.94 1019.05 1019.18 1019.35 1019.59 1019.92 1020.35 1020.87 1021.46 1022.07 1022.66 1023.17 1023.58 1023.86 1024.00 1024.01 1023.93 1023.79 1023.64 1023.50 1023.39 1023.35 1023.34 1023.36 1023.39 1023.39 1023.34 1023.25 1023.09 1022.88 1022.64 1022.38 1022.12 1021.88 1021.67 1021.49
1017.86 1018.18 1018.49 1018.77 1019.02 1019.21 1019.36 1019.46 1019.53 1019.61 1019.73 1019.92 1020.20 1020.58 1021.06 1021.60 1022.18 1022.74 1023.24 1023.63 1023.91 1024.06 1024.09 1024.03 1023.91 1023.78 1023.67 1023.59 1023.56 1023.56 1023.59 1023.61 1023.60 1023.55 1023.42 1023.23 1022.98 1022.69 1022.39 1022.08 1021.79 1021.53 1021.30
1018.66 1018.96 1019.24 1019.50 1019.72 1019.90 1020.02 1020.10 1020.15 1020.19 1020.27 1020.40 1020.61 1020.92 1021.31 1021.77 1022.26 1022.74 1023.17 1023.52 1023.75 1023.88 1023.91 1023.87 1023.78 1023.68 1023.60 1023.56 1023.57 1023.60 1023.66 1023.70 1023.70 1023.65 1023.52 1023.33 1023.07 1022.77 1022.44 1022.10 1021.78 1021.49 1021.22
1019.53 1019.80 1020.04 1020.27 1020.47 1020.62 1020.73 1020.79 1020.83 1020.86 1020.90 1020.99 1021.14 1021.36 1021.65 1021.99 1022.37 1022.73 1023.05 1023.30 1023.47 1023.55 1023.56 1023.52 1023.45 1023.39 1023.35 1023.36 1023.40 1023.48 1023.57 1023.64 1023.67 1023.64 1023.54 1023.37 1023.13 1022.84 1022.52 1022.19 1021.86 1021.54 1021.24
1020.42 1020.63 1020.83 1021.01 1021.18 1021.31 1021.41 1021.48 1021.51 1021.53 1021.56 1021.61 1021.71 1021.85 1022.04 1022.27 1022.51 1022.74 1022.94 1023.09 1023.17 1023.19 1023.16 1023.11 1023.05 1023.01 1023.00 1023.04 1023.12 1023.23 1023.35 1023.46 1023.52 1023.52 1023.46 1023.32 1023.12 1022.87 1022.59 1022.29 1021.98 1021.66 1021.34
1021.26 1021.40 1021.55 1021.68 1021.81 1021.92 1022.01 1022.08 1022.12 1022.15 1022.18 1022.22 1022.27 1022.36 1022.47 1022.59 1022.72 1022.83 1022.91 1022.95 1022.95 1022.90 1022.83 1022.75 1022.68 1022.65 1022.65 1022.71 1022.80 1022.93 1023.06 1023.17 1023.25 1023.28 1023.25 1023.16 1023.02 1022.82 1022.60 1022.35 1022.08 1021.78 1021.47
1022.01 1022.09 1022.18 1022.26 1022.35 1022.43 1022.51 1022.57 1022.62 1022.66 1022.70 1022.74 1022.79 1022.84 1022.90 1022.96 1023.00 1023.02 1023.01 1022.96 1022.88 1022.77 1022.65 1022.54 1022.45 1022.40 1022.39 1022.44 1022.52 1022.62 1022.73 1022.83 1022.91 1022.94 1022.93 1022.88 1022.78 1022.65 1022.50 1022.31 1022.10 1021.85 1021.56
1022.65 1022.69 1022.72 1022.76 1022.80 1022.85 1022.91 1022.96 1023.01 1023.07 1023.12 1023.17 1023.23 1023.28 1023.32 1023.35 1023.35 1023.32 1023.25 1023.15 1023.01 1022.85 1022.69 1022.54 1022.42 1022.33 1022.29 1022.29 1022.32 1022.37 1022.44 1022.49 1022.53 1022.54 1022.53 1022.49 1022.43 1022.35 1022.26 1022.14 1021.99 1021.81 1021.57
1023.19 1023.20 1023.20 1023.21 1023.21 1023.23 1023.26 1023.29 1023.34 1023.39 1023.45 1023.53 1023.60 1023.67 1023.73 1023.76 1023.75 1023.71 1023.61 1023.48 1023.31 1023.12 1022.93 1022.74 1022.57 1022.44 1022.34 1022.28 1022.24 1022.22 1022.20 1022.19 1022.16 1022.13 1022.09 1022.04 1021.99 1021.95 1021.90 1021.85 1021.77 1021.65 1021.47
1023.66 1023.66 1023.66 1023.64 1023.62 1023.61 1023.60 1023.61 1023.64 1023.69 1023.75 1023.84 1023.94 1024.03 1024.11 1024.16 1024.18 1024.14 1024.05 1023.91 1023.73 1023.52 1023.30 1023.07 1022.87 1022.68 1022.52 1022.39 1022.27 1022.16 1022.06 1021.95 1021.85 1021.75 1021.66 1021.58 1021.53 1021.49 1021.47 1021.46 1021.44 1021.38 1021.27
1024.05 1024.08 1024.09 1024.08 1024.05 1024.02 1023.98 1023.96 1023.96 1023.99 1024.05 1024.14 1024.25 1024.37 1024.47 1024.55 1024.59 1024.58 1024.50 1024.36 1024.18 1023.96 1023.71 1023.46 1023.21 1022.98 1022.76 1022.56 1022.37 1022.18 1021.99 1021.81 1021.62 1021.45 1021.30 1021.17 1021.08 1021.04 1021.03 1021.04 1021.05 1021.04 1020.98
1024.38 1024.46 1024.50 1024.51 1024.49 1024.45 1024.40 1024.35 1024.32 1024.32 1024.37 1024.45 1024.56 1024.68 1024.81 1024.91 1024.96 1024.96 1024.89 1024.76 1024.57 1024.34 1024.08 1023.80 1023.53 1023.26 1022.99 1022.74 1022.49 1022.24 1021.99 1021.73 1021.48 1021.23 1021.02 1020.84 1020.71 1020.63 1020.60 1020.61 1020.64 1020.66 1020.64
1024.63 1024.77 1024.87 1024.91 1024.92 1024.88 1024.82 1024.75 1024.70 1024.68 1024.70 1024.76 1024.86 1024.98 1025.10 1025.20 1025.26 1025.26 1025.19 1025.05 1024.85 1024.61 1024.33 1024.03 1023.74 1023.44 1023.16 1022.87 1022.59 1022.31 1022.01 1021.71 1021.40 1021.10 1020.83 1020.59 1020.41 1020.29 1020.23 1020.22 1020.24 1020.27 1020.27
1024.80 1024.99 1025.15 1025.24 1025.28 1025.26 1025.21 1025.14 1025.07 1025.03 1025.02 1025.06 1025.14 1025.23 1025.34 1025.42 1025.46 1025.44 1025.36 1025.20 1024.99 1024.72 1024.43 1024.12 1023.80 1023.50 1023.21 1022.92 1022.63 1022.33 1022.02 1021.70 1021.36 1021.02 1020.71 1020.42 1020.19 1020.01 1019.91 1019.86 1019.85 1019.87 1019.88
1024.87 1025.12 1025.32 1025.46 1025.54 1025.55 1025.52 1025.46 1025.39 1025.34 1025.31 1025.33 1025.38 1025.45 1025.52 1025.57 1025.58 1025.53 1025.41 1025.23 1024.98 1024.69 1024.38 1024.05 1023.74 1023.43 1023.14 1022.86 1022.59 1022.30 1021.99 1021.67 1021.32 1020.96 1020.61 1020.29 1020.00 1019.78 1019.62 1019.52 1019.48 1019.47 1019.46
1024.87 1025.15 1025.39 1025.57 1025.69 1025.74 1025.74 1025.70 1025.64 1025.59 1025.56 1025.56 1025.58 1025.62 1025.66 1025.67 1025.63 1025.54 1025.38 1025.16 1024.88 1024.56 1024.23 1023.89 1023.57 1023.27 1022.99 1022.73 1022.47 1022.20 1021.91 1021.59 1021.24 1020.88 1020.51 1020.15 1019.82 1019.55 1019.33 1019.18 1019.10 1019.05 1019.02
1024.84 1025.13 1025.39 1025.61 1025.76 1025.86 1025.89 1025.88 1025.84 1025.80 1025.77 1025.75 1025.75 1025.75 1025.75 1025.71 1025.64 1025.50 1025.30 1025.04 1024.73 1024.39 1024.03 1023.69 1023.36 1023.06 1022.79 1022.54 1022.29 1022.04 1021.77 1021.46 1021.12 1020.75 1020.36 1019.98 1019.62 1019.30 1019.03 1018.83 1018.70 1018.62 1018.57
Thickness
5727 5727 5727 5726 5727 5727 5725 5725 5726 5725 5725 5725 5726 5725 5725 5724 5724 5723 5719 5714 5711 5709 5708 5706 5705 5703 5701 5699 5697 5696 5694 5692 5691 5689 5688 5687 5685 5684 5683 5682 5682 5681 5681
5724 5723 5722 5721 5723 5722 5722 5722 5722 5721 5721 5721 5721 5719 5718 5718 5716 5715 5715 5711 5707 5705 5704 5703 5701 5700 5698 5696 5693 5691 5690 5688 5686 5684 5682 5681 5679 5678 5677 5676 5675 5675 5675
5718 5718 5718 5716 5717 5717 5716 5716 5716 5716 5716 5715 5714 5713 5712 5710 5710 5709 5709 5708 5706 5701 5700 5698 5697 5695 5693 5691 5689 5686 5684 5682 5680 5678 5676 5674 5672 5671 5670 5669 5669 5668 5668
5712 5713 5713 5713 5711 5712 5712 5712 5711 5710 5709 5709 5708 5708 5706 5703 5702 5702 5703 5703 5701 5698 5694 5691 5690 5688 5687 5685 5683 5680 5678 5675 5673 5671 5669 5667 5666 5664 5662 5661 5660 5660 5659
5707 5707 5707 5707 5706 5707 5707 5707 5705 5704 5702 5701 5700 5699 5699 5698 5696 5696 5695 5695 5692 5690 5688 5684 5682 5680 5678 5676 5674 5672 5670 5668 5666 5664 5662 5659 5657 5656 5654 5652 5651 5650 5649
5701 5701 5701 5699 5700 5701 5700 5699 5697 5697 5697 5695 5695 5692 5690 5689 5688 5687 5687 5685 5683 5682 5680 5678 5675 5671 5668 5667 5665 5663 5661 5659 5657 5655 5653 5651 5648 5646 5644 5643 5641 5640 5639
5694 5695 5695 5694 5694 5694 5693 5692 5690 5689 5689 5688 5687 5683 5681 5680 5678 5677 5676 5676 5674 5672 5670 5668 5666 5663 5660 5656 5654 5653 5651 5649 5647 5645 5643 5640 5638 5636 5635 5633 5631 5630 5629
5687 5688 5688 5687 5686 5685 5684 5684 5683 5683 5682 5681 5681 5678 5673 5670 5667 5667 5666 5664 5663 5662 5660 5657 5654 5652 5650 5648 5643 5641 5639 5637 5635 5633 5631 5629 5627 5624 5623 5621 5619 5618 5617
5679 5679 5679 5679 5678 5678 5677 5676 5676 5675 5674 5673 5674 5673 5669 5665 5660 5656 5654 5653 5652 5650 5648 5645 5642 5640 5638 5636 5633 5629 5626 5624 5622 5620 5618 5616 5614 5612 5610 5608 5606 5605 5604
5670 5669 5670 5669 5668 5669 5668 5668 5668 5668 5667 5665 5663 5663 5663 5663 5657 5648 5645 5643 5641 5638 5636 5634 5631 5628 5626 5624 5620 5616 5613 5610 5608 5607 5604 5602 5600 5598 5597 5595 5593 5592 5591
5659 5659 5659 5658 5658 5658 5658 5657 5657 5658 5658 5657 5656 5654 5652 5650 5650 5646 5640 5634 5631 5628 5625 5622 5620 5618 5615 5612 5609 5604 5600 5598 5595 5593 5592 5590 5588 5585 5583 5581 5580 5578 5577
5647 5647 5647 5647 5647 5647 5646 5646 5646 5646 5645 5644 5644 5643 5642 5641 5638 5636 5632 5625 5622 5618 5614 5611 5610 5607 5604 5602 5598 5592 5589 5586 5583 5580 5578 5576 5574 5572 5570 5568 5566 5565 5563
5636 5634 5635 5635 5635 5635 5635 5635 5634 5633 5632 5631 5631 5630 5630 5628 5628 5627 5625 5619 5613 5609 5604 5602 5599 5595 5593 5590 5586 5580 5578 5574 5571 5568 5565 5563 5561 5559 5557 5555 5553 5551 5549
5624 5623 5623 5624 5624 5624 5624 5624 5623 5621 5620 5619 5617 5617 5617 5616 5615 5614 5613 5611 5607 5604 5598 5592 5588 5584 5580 5577 5573 5569 5569 5563 5559 5556 5553 5551 5549 5547 5545 5542 5540 5538 5537
5613 5612 5612 5612 5612 5612 5612 5612 5611 5609 5608 5608 5606 5605 5604 5601 5600 5600 5599 5599 5597 5596 5592 5582 5578 5573 5568 5565 5560 5558 5556 5552 5548 5545 5542 5540 5538 5536 5533 5531 5528 5526 5524
5601 5600 5600 5600 5600 5599 5599 5600 5599 5597 5595 5593 5591 5590 5589 5589 5586 5586 5585 5583 5582 5581 5579 5573 5565 5561 5555 5554 5550 5547 5546 5542 5540 5536 5533 5530 5528 5525 5523 5520 5517 5515 5513
5588 5588 5588 5588 5587 5587 5587 5587 5587 5585 5583 5581 5579 5578 5575 5574 5574 5573 5571 5569 5567 5565 5563 5559 5555 5551 5544 5542 5541 5538 5538 5536 5537 5529 5525 5521 5518 5515 5512 5509 5507 5504 5501
5576 5576 5576 5576 5575 5574 5574 5574 5574 5572 5571 5570 5567 5565 5563 5561 5558 5558 5556 5555 5552 5548 5549 5545 5543 5542 5536 5533 5531 5529 5531 5530 5527 5523 5518 5514 5510 5507 5503 5500 5497 5494 5492
5564 5564 5563 5563 5563 5562 5561 5561 5561 5560 5559 5557 5555 5553 5550 5548 5546 5544 5543 5542 5541 5538 5535 5535 5534 5531 5530 5527 5525 5525 5525 5521 5521 5519 5514 5509 5505 5500 5497 5493 5490 5486 5483
5553 5552 5552 5551 5551 5551 5550 5550 5549 5548 5546 5544 5542 5540 5538 5537 5534 5532 5531 5529 5528 5527 5526 5527 5527 5525 5523 5521 5518 5519 5519 5518 5516 5514 5510 5506 5501 5497 5492 5488 5484 5480 5476
5542 5541 5541 5540 5540 5539 5537 5537 5537 5537 5535 5533 5531 5529 5526 5521 5517 5516 5518 5517 5517 5518 5519 5519 5519 5518 5516 5513 5512 5511 5511 5510 5510 5507 5505 5503 5500 5496 5490 5485 5479 5473 5469
5531 5531 5530 5530 5529 5526 5521 5521 5523 5526 5525 5523 5522 5520 5516 5513 5508 5505 5503 5502 5500 5504 5507 5507 5509 5507 5504 5504 5502 5501 5502 5503 5502 5501 5498 5497 5495 5492 5488 5483 5474 5469 5464
5521 5521 5520 5520 5517 5511 5509 5509 5510 5515 5515 5513 5512 5510 5510 5506 5502 5502 5499 5495 5495 5492 5490 5493 5497 5496 5495 5496 5493 5495 5495 5494 5492 5493 5492 5492 5492 5488 5485 5479 5472 5466 5461
5513 5512 5510 5509 5507 5501 5499 5500 5501 5505 5506 5504 5503 5501 5500 5498 5495 5491 5494 5495 5494 5493 5489 5486 5488 5487 5489 5486 5485 5486 5487 5488 5489 5490 5488 5488 5487 5485 5483 5476 5469 5464 5459
5505 5504 5503 5501 5499 5494 5490 5491 5490 5498 5498 5497 5495 5493 5491 5490 5482 5481 5485 5489 5489 5488 5485 5483 5481 5480 5480 5479 5477 5480 5485 5487 5489 5488 5486 5484 5483 5482 5480 5475 5469 5463 5458
5498 5498 5495 5493 5491 5488 5482 5483 5482 5493 5492 5492 5490 5486 5479 5479 5475 5475 5479 5482 5483 5483 5483 5483 5481 5480 5480 5479 5476 5475 5480 5483 5484 5483 5482 5479 5479 5479 5478 5475 5470 5465 5459